Tracking 25710 objects as of 5-Jul-2022
HD Live streaming from Space Station
objects crossing your sky now

FENGYUN 1C DEB

Track FENGYUN 1C DEB now!
10-day predictions


NORAD ID: 33674
Int'l Code: 1999-025DFK
Perigee: 842.2 km
Apogee: 1,173.5 km
Inclination: 98.6 °
Period: 105.1 minutes
Semi major axis: 7378 km
RCS: 0.0036 m2 (small)
Launch date: May 10, 1999
Source: People's Republic of China (PRC)
Launch site: Taiyaun Space Center, China (TSC)

Note: This is SATELLITE DEBRIS
aabbcc
Your satellite tracking list
Your tracking list is empty




NASA's NSSDC Master Catalog

Two Line Element Set (TLE):
1 33674U 99025DFK 22182.24153261  .00000374  00000-0  39431-3 0  9994
2 33674  98.6009 340.6562 0224517  10.8864 349.7030 13.69678750710670
Source of the keplerian elements: AFSPC